This is the latest recevied weather packets stored in our database for station/object KV9E. If no packets are shown the sender has not sent any weather packets the latest 10 day(s).
| Time | Temp. | Humidity | Pressure | Rain* | Wind** | Luminosity | Snow |
|---|---|---|---|---|---|---|---|
| 1788039237 | 31.67° C | 54% | 1018.6 hPa | 0 mm | - | 317 W/m² | - |
| 1788038932 | 31.11° C | 55% | 1018.8 hPa | 0 mm | - | 313 W/m² | - |
| 1788038628 | 31.67° C | 57% | 1018.9 hPa | 0 mm | - | 334 W/m² | - |
| 1788038326 | 31.11° C | 56% | 1018.8 hPa | 0 mm | - | 331 W/m² | - |
| 1788038022 | 30.56° C | 58% | 1018.8 hPa | 0 mm | - | 361 W/m² | - |
| 1788037721 | 30.56° C | 59% | 1018.8 hPa | 0 mm | - | 358 W/m² | - |
| 1788037417 | 30.56° C | 58% | 1018.6 hPa | 0 mm | - | 372 W/m² | - |
| 1788037116 | 31.11° C | 59% | 1018.9 hPa | 0 mm | - | 371 W/m² | - |
| 1788036811 | 30° C | 58% | 1019 hPa | 0 mm | - | 384 W/m² | - |
| 1788036508 | 30.56° C | 63% | 1019 hPa | 0 mm | - | 400 W/m² | - |
| 1788036203 | 30° C | 60% | 1019.2 hPa | 0 mm | - | 409 W/m² | - |
| 1788035898 | 28.89° C | 63% | 1019.1 hPa | 0 mm | - | 141 W/m² | - |
| 1788035598 | 27.22° C | 64% | 1018.9 hPa | 0 mm | - | 441 W/m² | - |
| 1788035293 | 27.22° C | 69% | 1019.2 hPa | 0 mm | - | 108 W/m² | - |
| 1788034989 | 26.67° C | 69% | 1019.3 hPa | 0 mm | - | 76 W/m² | - |
| 1788034685 | 27.22° C | 71% | 1019.4 hPa | 0 mm | - | 86 W/m² | - |
| 1788034380 | 27.22° C | 70% | 1019.3 hPa | 0 mm | - | 69 W/m² | - |
| 1788034075 | 27.22° C | 68% | 1019.5 hPa | 0 mm | - | 73 W/m² | - |
| 1788033768 | 27.22° C | 68% | 1019.5 hPa | 0 mm | - | 76 W/m² | - |
| 1788033463 | 27.78° C | 68% | 1019.5 hPa | 0 mm | - | 83 W/m² | - |
| 1788033171 | 28.33° C | 67% | 1019.5 hPa | 0 mm | - | 76 W/m² | - |
| 1788032859 | 28.33° C | 65% | 1019.6 hPa | 0 mm | - | 84 W/m² | - |
| 1788032558 | 30° C | 62% | 1019.6 hPa | 0 mm | - | 259 W/m² | - |
| 1788032254 | 31.11° C | 58% | 1019.7 hPa | 0 mm | - | 230 W/m² | - |
| 1788031944 | 30.56° C | 58% | 1019.8 hPa | 0 mm | - | 580 W/m² | - |
* Rain latest hour (hover to see other rain measurements)
** Current wind speed in m/s (hover to see current wind gust speed)